Showing default

COSMOS 2275 (GLONASS), 23045

Orbit data source: Space-Track

COSMOS 2275 (GLONASS), 23045 is a payload satellite owned by VKS (CIS) in MEO that was launched on Mon, 11 Apr 1994 UTC via a PROTON-K/DM-2 launch vehicle from the Tyuratam Missile And Space Complex (TTMTR). Payload-class satellites include a variety of spacecraft equipped with specific instruments for various scientific and technological missions. These include communications satellites like Starlink; space stations such as the ISS; scientific satellites like the Hubble; Earth observation satellites from companies like Planet Labs, Umbra, and HawkEye 360; GPS; miniature CubeSats for education and research; and military/defense satellites.

Loading next visibility...
Identifier
23045, 1994-021C
Orbit
MEO
Country
Flag of CISCIS
Related business
Manufacturer
Polyot
Mission
Non-operational Defense Navigation
Bus & Motor
URAGAN, Unknown motor
Mass
1,300 kg wet, ~1,200 kg dry
Launch date (UTC)
1994-04-11 (32 years ago)
Launch vehicle
PROTON-K/DM-2
Launch site
Tyuratam Missile And Space Complex (TTMTR)
Object type
Payload
Rocket body
Debris
Shape & HBR
Cyl + 2 Pan, 4.2 m
Radar Cross Section
14.707 m², Large (>1 m²)

Expand to show TLE details & history
Last TLE update: 4 days ago

TLE from 4 days ago
0 COSMOS 2275 (GLONASS)
1 23045U 94021C   26169.69967337 -.00000051  00000-0  00000-0 0  9991
2 23045  63.9681 300.4907 0028276  32.6477 300.5988  2.13101461250252
Epoch: 2026-06-18T16:47Z
TLE epoch observation values (Epoch: 2026-06-18T16:47:31.779Z)
Latitude
-24.1369°
Longitude
129.0395°
Altitude
19,100.339 km
Speed
3.958 km/s
True Right ascension
19h 11m 26s
True Declination
-24° 06' 04"
Sunlit
Object was in daylight at epoch
Visualization orbit readout
Latitude
Unknown
Longitude
Unknown
Altitude
Unknown
Speed
Unknown
Apparent Right ascension
Unknown
Apparent Declination
Unknown
Sunlit
N/A
Visualization observer readout
Local Sidereal Time
13:38:45
Azimuth
Unknown
Elevation
Unknown
Doppler factor
Unknown
Orbital elements
Apogee altitude
19,201.707 km
Perigee altitude
19,057.456 km
Semi-major axis
25,507.719 km
Eccentricity
0.00283
Inclination
63.9681°
RAAN
300.4907°
Arg. of periapsis
32.6477°
True anomaly
300.3194°
Mean anomaly
300.5988°
Eccentric anomaly
300.45915°
Mean motion
0.53277 °/min
Orbital period
675.72 mins
BSTAR
0
Loading maneuver chart data...
Computing Atmospheric mass density...
Loading historical data...
Loading historical data...
Loading historical data...
Loading historical data...
Loading historical data...
Loading historical data...
Loading historical data...

Documentation

Showing up to 5 results
|